User: anonymous   Login
Location: Radford
(37.1320°N, 80.5770°W)
Time: 14:17:42
(UTC-04:00)
Language:

Okean 1-7 - Orbit

View from above orbital plane
View from above orbital plane
View from above satellite
View from above satellite

Ground track
Ground track

The orbit data is extracted from the following two-line orbital elements,

1 23317U 94066A   15117.82540661  .00001408  00000-0  15564-3 0  9995
2 23317 082.5357 132.7341 0021455 133.5077 355.7594 14.86562158109837
Epoch (UTC): 27 April 2015 19:48:35
Eccentricity: 0.0021455
inclination: 82.5357°
perigee height: 594 km
apogee height: 623 km
right ascension of ascending node: 132.7341°
argument of perigee: 133.5077°
revolutions per day: 14.86562158
mean anomaly at epoch: 355.7594°
orbit number at epoch: 10983

The dashed part of the orbit path shows where the satellite is in the earth's shadow,  

DLR